星链-30766 (STARLINK-30766 )

导读 | 星芒AI

STARLINK-30766 是 SpaceX 星链计划中的一颗低轨通信卫星,属于第 11 批组网卫星(Batch 11)。该卫星于 2023 年 9 月发射,运行在约 550 公里的近地轨道,旨在为全球用户提供高速互联网服务。作为星链星座的一部分,它支持星间激光通信技术,提升网络覆盖与传输效率。该卫星采用标准化设计,具备自动避障功能,有助于降低太空碰撞风险。

基本信息
目录编号:
58125
目录名称:
STARLINK-30766
国际标识:
2023-162H
轨道中心:
EARTH
卫星名称:
星链-30766
卫星全名:
星链-30766 (STARLINK-30766 )
卫星状态:
在轨 (已飞行789 天)
发射日期:
2023-10-22 UTC
国别 :
美国 (US)
星等 :
--
轨道信息
数据来源 国际轨道数据
星历时间: 2025-12-19T08:06:11+0800
18小时前
查看轨道信息
半长轴: 6937.185km
偏心率: 0.0000954
轨道倾角: 43.002°
近地点辐角 269.233°
升交点赤经 211.444°
平近点角 90.841°
近地点: 558.386km
远地点: 559.71km
周期: 95.837分钟
每日圈数: 15.025463
详细信息
固有亮度:
5
最大亮度:
0.3
卫星平台:
Starlink v2.0 mini
覆盖范围:
全球
运营商:
太空探索技术公司
运营商所在国:
美国
制造商(研发单位):
太空探索技术公司
制造商所在国:
美国
使用方式:
暂无
卫星简介
星链(Starlink)计划是由太空探索技术公司(SpaceX)提出的一个巨型低轨卫星互联网星座项目,计划在2019年至2024年间在太空搭建由约1.2万颗卫星组成的“星链”网络,其中1584颗将部署在地球上空550千米处的近地轨道,并从2020年开始工作。该卫星仍在工作。
2D轨道图
3D轨道图
轨道高度分析图
轨道倾角分析图
轨道综合分析图
查看轨道综合分析图